Starlink 4049

operational
NORAD ID: 52840 Int'l Des: 2022-062 Owner: SPXS Country: US Constellation: starlink
LEOCIRCULAR

About Starlink 4049

Description loading...

Live Position

Loading 3D Globe...

Upcoming Passes

Altitude History

Altitude vs Time

uPlot chart will show altitude changes over time

Two-Line Element Set

1 52840U 22062L 25351.88107110 .00002508 00000-0 17558-3 0 9997
2 52840 53.2167 41.4909 0001380 81.1302 278.9847 15.08852288193431
Epoch: Dec 17, 2025 • Age: 14 hours

Current Status

Altitude 556.0 km
Velocity 7.58 km/s
Sub-Earth Point -45.29°S, 16.3°E
Launch Date Jun 17, 2022
Age 3.5 years
Type internet

Technical Details

Classification Payload
Mass 297.00 kg
Dry Mass 275.00 kg
Total Mass 297.00 kg
Length 0.20 m
Diameter 2.80 m
Span 9.00 m
Shape Box + pan
Manufacturer SPXS
Bus Type Starlink
Phase Status In Orbit
Owner/State SPXS/US

Large Constellations

Loading constellations...